GW6636 Weather Reports


time (UTC)temp
C
wind
direction
speed
KPH
gust
KPH
rain 1hr
cm
rain 24hr
cm
rain mn
cm
humidity
%
barometer
mb
20260906111228 23 193 1.6 3.2 0.00 0.00 0.00 96 1013.2
20260906110726 23 142 3.2 3.2 0.00 0.00 0.00 96 1013.2
20260906110226 23 180 1.6 1.6 0.00 0.00 0.00 96 1013.2
20260906105726 23 175 0.0 1.6 0.00 0.00 0.00 96 1013.1
20260906105226 23 201 1.6 3.2 0.00 0.00 0.00 96 1013.0
20260906104726 23 171 1.6 1.6 0.00 0.00 0.00 96 1013.0
20260906104226 23 170 0.0 1.6 0.00 0.00 0.00 95 1012.9
20260906103726 24 155 1.6 3.2 0.00 0.00 0.00 96 1012.9
20260906103226 24 175 1.6 1.6 0.00 0.00 0.00 96 1012.9
20260906102726 24 143 1.6 1.6 0.00 0.00 0.00 96 1012.9
20260906102226 24 182 1.6 1.6 0.00 0.00 0.00 96 1012.8
20260906101726 24 162 1.6 3.2 0.00 0.00 0.00 96 1012.9
20260906101226 24 205 1.6 3.2 0.00 0.00 0.00 96 1012.9
20260906100726 24 160 1.6 3.2 0.00 0.00 0.00 96 1012.9
20260906100226 24 180 1.6 3.2 0.00 0.00 0.00 96 1012.9
20260906095726 24 204 1.6 3.2 0.00 0.00 0.00 96 1012.8
20260906095227 24 184 0.0 1.6 0.00 0.00 0.00 96 1012.7
20260906094726 24 206 1.6 3.2 0.00 0.00 0.00 97 1012.7
20260906094226 23 199 1.6 3.2 0.00 0.00 0.00 96 1012.6
20260906093726 23 198 1.6 3.2 0.00 0.00 0.00 96 1012.6
20260906093226 23 147 1.6 3.2 0.00 0.00 0.00 96 1012.6
20260906092726 23 140 3.2 3.2 0.00 0.00 0.00 96 1012.6
20260906092226 23 142 1.6 3.2 0.00 0.00 0.00 96 1012.6
20260906091726 23 150 1.6 3.2 0.00 0.00 0.00 96 1012.5
20260906091226 23 161 1.6 3.2 0.00 0.00 0.00 96 1012.5
20260906090726 23 158 1.6 3.2 0.00 0.00 0.00 96 1012.5
20260906090226 23 178 1.6 1.6 0.00 0.00 0.00 96 1012.5
20260906085726 24 179 1.6 1.6 0.00 0.00 0.00 96 1012.5
20260906085226 24 146 1.6 3.2 0.00 0.00 0.00 96 1012.5
20260906084726 24 182 1.6 1.6 0.00 0.00 0.00 96 1012.4
20260906084226 24 166 1.6 3.2 0.00 0.00 0.00 96 1012.4
20260906083727 24 192 1.6 3.2 0.00 0.00 0.00 96 1012.3
20260906083227 24 194 1.6 3.2 0.00 0.00 0.00 96 1012.2
20260906082726 24 165 1.6 3.2 0.00 0.00 0.00 96 1012.0
20260906082226 24 146 1.6 3.2 0.00 0.00 0.00 96 1012.0
20260906081726 24 145 1.6 1.6 0.00 0.00 0.00 96 1011.8
20260906081226 24 170 1.6 1.6 0.00 0.00 0.00 96 1011.8
20260906080729 24 174 1.6 1.6 0.00 0.00 0.00 96 1011.8
20260906080226 24 150 1.6 3.2 0.00 0.00 0.00 96 1011.8
20260906075728 24 213 3.2 3.2 0.00 0.00 0.00 96 1011.8
20260906075226 24 156 1.6 3.2 0.00 0.00 0.00 96 1011.9
20260906074728 24 149 1.6 3.2 0.00 0.00 0.00 96 1011.9
20260906074227 24 176 0.0 0.0 0.00 0.00 0.00 96 1011.8
20260906073726 24 174 0.0 1.6 0.00 0.00 0.00 96 1011.8
20260906073227 24 174 1.6 1.6 0.00 0.00 0.00 96 1011.7
20260906072726 24 162 1.6 3.2 0.00 0.00 0.00 96 1011.7
20260906072228 24 170 1.6 1.6 0.00 0.00 0.00 96 1011.7
20260906071726 24 153 1.6 3.2 0.00 0.00 0.00 96 1011.7
20260906071227 24 195 1.6 3.2 0.00 0.00 0.00 96 1011.6
20260906070726 24 182 1.6 1.6 0.00 0.00 0.00 96 1011.5
20260906070226 24 155 1.6 1.6 0.00 0.00 0.00 96 1011.6
20260906065729 24 172 1.6 1.6 0.00 0.00 0.00 96 1011.7
20260906065227 24 160 1.6 3.2 0.00 0.00 0.00 96 1011.8
20260906064726 24 149 1.6 3.2 0.00 0.00 0.00 96 1011.8
20260906064226 24 156 1.6 3.2 0.00 0.00 0.00 96 1011.8
20260906063726 24 167 1.6 1.6 0.00 0.00 0.00 96 1011.9
20260906063226 24 134 3.2 3.2 0.00 0.00 0.00 96 1011.9
20260906062726 25 153 1.6 3.2 0.00 0.00 0.00 96 1011.9
20260906062226 25 178 1.6 1.6 0.00 0.00 0.00 96 1011.9
20260906061726 25 165 1.6 1.6 0.00 0.00 0.00 95 1012.0
20260906061227 25 157 1.6 3.2 0.00 0.00 0.00 95 1011.9
20260906060726 25 166 1.6 3.2 0.00 0.00 0.00 95 1012.0
20260906060226 25 131 3.2 3.2 0.00 0.00 0.00 95 1012.1
20260906055726 25 156 1.6 1.6 0.00 0.00 0.00 95 1012.1
20260906055226 25 196 1.6 3.2 0.00 0.00 0.00 95 1012.1
20260906054726 25 153 1.6 3.2 0.00 0.00 0.00 95 1012.1
20260906054226 25 150 1.6 3.2 0.00 0.00 0.00 95 1012.2
20260906053726 25 141 1.6 3.2 0.00 0.00 0.00 95 1012.1
20260906053226 25 155 1.6 1.6 0.00 0.00 0.00 95 1012.0
20260906052726 25 143 1.6 1.6 0.00 0.00 0.00 95 1012.1
20260906052226 25 152 1.6 3.2 0.00 0.00 0.00 95 1012.1
20260906051726 25 146 3.2 3.2 0.00 0.00 0.00 95 1012.2
20260906051226 25 189 1.6 3.2 0.00 0.00 0.00 95 1012.2
20260906050727 25 199 1.6 3.2 0.00 0.00 0.00 95 1012.3
20260906050226 25 119 3.2 3.2 0.00 0.00 0.00 94 1012.2
20260906045726 25 202 1.6 3.2 0.00 0.00 0.08 94 1012.3
20260906045226 25 142 1.6 3.2 0.00 0.00 0.08 94 1012.3
20260906044726 25 138 3.2 3.2 0.00 0.00 0.08 94 1012.4
20260906044226 25 140 3.2 3.2 0.00 0.00 0.08 94 1012.4
20260906043726 25 119 1.6 3.2 0.00 0.00 0.08 95 1012.4
20260906043227 25 158 1.6 1.6 0.00 0.00 0.08 95 1012.4
20260906042726 25 130 1.6 3.2 0.00 0.00 0.08 95 1012.5
20260906042226 25 142 1.6 3.2 0.00 0.00 0.08 95 1012.4
20260906041726 25 169 1.6 1.6 0.00 0.00 0.08 95 1012.4
20260906041226 25 139 3.2 3.2 0.00 0.00 0.08 94 1012.4
20260906040727 25 149 3.2 3.2 0.00 0.00 0.08 94 1012.4
20260906040226 25 152 1.6 3.2 0.00 0.00 0.08 94 1012.4
20260906035726 25 161 1.6 3.2 0.00 0.00 0.08 94 1012.4
20260906035229 25 147 1.6 3.2 0.00 0.00 0.08 94 1012.5
20260906034726 25 145 1.6 3.2 0.00 0.00 0.08 94 1012.6
20260906034226 25 149 3.2 3.2 0.00 0.00 0.08 94 1012.5
20260906033726 25 140 1.6 3.2 0.00 0.00 0.08 94 1012.6
20260906033226 25 154 1.6 3.2 0.00 0.00 0.08 94 1012.7
20260906032726 25 134 3.2 3.2 0.00 0.00 0.08 94 1012.7
20260906032227 25 147 1.6 1.6 0.00 0.00 0.08 94 1012.7
20260906031726 25 134 3.2 3.2 0.00 0.00 0.08 94 1012.8
20260906031226 25 148 1.6 3.2 0.00 0.00 0.08 94 1012.8
20260906030726 25 134 3.2 3.2 0.00 0.00 0.08 94 1012.7
20260906030226 25 144 1.6 3.2 0.00 0.00 0.08 93 1012.7
20260906025726 25 148 1.6 1.6 0.00 0.00 0.08 93 1012.8
20260906025226 25 166 1.6 1.6 0.00 0.00 0.08 93 1012.8
20260906024726 25 143 3.2 3.2 0.00 0.00 0.08 93 1012.8
20260906024226 25 145 1.6 3.2 0.00 0.00 0.08 93 1012.8
20260906023727 25 136 3.2 3.2 0.00 0.00 0.08 93 1012.8
20260906023226 25 151 1.6 3.2 0.00 0.00 0.08 93 1012.8
20260906022726 25 138 1.6 1.6 0.00 0.00 0.08 93 1012.8
20260906022226 25 151 1.6 1.6 0.00 0.00 0.08 93 1012.7
20260906021727 26 140 1.6 3.2 0.00 0.00 0.08 92 1012.7
20260906021226 26 161 1.6 3.2 0.00 0.00 0.08 92 1012.7
20260906020726 26 136 1.6 3.2 0.00 0.00 0.08 92 1012.7
20260906020226 26 164 1.6 1.6 0.00 0.00 0.08 92 1012.7
20260906015727 26 143 1.6 3.2 0.00 0.00 0.08 91 1012.7
20260906015227 26 138 1.6 3.2 0.00 0.00 0.08 92 1012.6
20260906014726 26 142 1.6 3.2 0.00 0.00 0.08 92 1012.5
20260906014226 26 185 1.6 3.2 0.00 0.00 0.08 92 1012.5
20260906013726 26 147 1.6 3.2 0.00 0.00 0.08 92 1012.5
20260906013226 26 169 1.6 1.6 0.00 0.00 0.08 92 1012.5
20260906012726 26 164 1.6 1.6 0.00 0.00 0.08 92 1012.5
20260906012226 26 156 1.6 3.2 0.00 0.00 0.08 92 1012.4
20260906011726 26 152 1.6 3.2 0.00 0.00 0.08 92 1012.3
20260906011226 26 147 1.6 1.6 0.00 0.00 0.08 91 1012.2
20260906010726 26 146 1.6 3.2 0.00 0.00 0.08 91 1012.2
20260906010226 26 155 1.6 3.2 0.00 0.00 0.08 91 1012.2
20260906005726 26 203 1.6 3.2 0.00 0.00 0.08 92 1012.1
20260906005226 26 162 3.2 3.2 0.00 0.00 0.08 92 1012.2
20260906004726 26 173 1.6 3.2 0.00 0.00 0.08 92 1012.1
20260906004226 26 151 1.6 3.2 0.00 0.00 0.08 91 1012.1
20260906003726 26 143 1.6 3.2 0.00 0.00 0.08 91 1012.0
20260906003226 27 178 1.6 3.2 0.00 0.00 0.08 90 1012.1
20260906002726 27 180 1.6 3.2 0.00 0.00 0.08 90 1012.1
20260906002227 27 151 1.6 3.2 0.00 0.00 0.08 89 1012.1
20260906001726 27 161 1.6 3.2 0.00 0.00 0.08 89 1012.0
20260906001226 27 170 1.6 1.6 0.00 0.00 0.08 88 1012.1
20260906000726 27 186 1.6 3.2 0.00 0.00 0.08 88 1012.1
20260906000226 27 175 1.6 3.2 0.00 0.00 0.08 89 1012.0
20260905235727 27 173 1.6 1.6 0.00 0.00 0.08 90 1012.1
20260905235227 27 174 1.6 3.2 0.00 0.00 0.08 90 1012.1
20260905234727 27 169 1.6 3.2 0.00 0.00 0.08 90 1012.0
20260905234228 27 159 1.6 3.2 0.00 0.00 0.08 90 1012.1
20260905233726 27 163 1.6 3.2 0.00 0.00 0.08 90 1012.2
20260905233226 27 178 1.6 1.6 0.00 0.00 0.08 89 1012.2
20260905232726 27 194 1.6 3.2 0.00 0.00 0.08 88 1012.1
20260905232226 27 177 1.6 3.2 0.00 0.00 0.08 88 1012.1
20260905231726 27 188 1.6 3.2 0.00 0.00 0.08 87 1012.0
20260905231226 27 146 8.0 9.7 0.00 0.00 0.08 86 1011.9
20260905230726 27 153 8.0 8.0 0.00 0.00 0.08 86 1011.8
20260905230227 27 145 8.0 9.7 0.00 0.00 0.08 84 1011.8
20260905225727 27 141 8.0 9.7 0.00 0.00 0.08 87 1011.7
20260905225227 27 144 8.0 9.7 0.00 0.00 0.08 86 1011.7
20260905224726 27 143 8.0 9.7 0.00 0.00 0.08 86 1011.9
20260905224226 27 147 8.0 9.7 0.00 0.00 0.08 88 1011.9
20260905223734 27 139 8.0 9.7 0.00 0.00 0.08 89 1011.9
20260905223226 27 137 6.4 9.7 0.00 0.00 0.08 90 1012.0
20260905222727 26 140 6.4 8.0 0.00 0.00 0.08 90 1012.1
20260905222226 26 134 3.2 6.4 0.00 0.00 0.08 90 1012.1
20260905221726 26 127 4.8 6.4 0.00 0.00 0.08 90 1012.0
20260905221227 26 132 4.8 6.4 0.00 0.00 0.08 90 1012.0
20260905220726 26 128 3.2 6.4 0.00 0.00 0.08 89 1012.0
20260905220227 26 128 4.8 6.4 0.00 0.00 0.08 89 1012.0
20260905215726 26 137 6.4 8.0 0.00 0.00 0.08 90 1012.1
20260905215226 26 126 4.8 6.4 0.00 0.00 0.08 89 1012.3
20260905214726 26 127 4.8 8.0 0.00 0.00 0.08 89 1012.4
20260905214226 26 134 4.8 8.0 0.00 0.00 0.08 88 1012.5
20260905213726 26 147 9.7 9.7 0.00 0.00 0.08 87 1012.5
20260905213226 27 132 4.8 11.3 0.08 0.00 0.08 84 1012.8
20260905212726 27 132 3.2 6.4 0.03 0.00 0.08 86 1013.0
20260905212226 28 126 3.2 6.4 0.81 0.00 0.05 81 1012.9
20260905211726 28 119 3.2 6.4 0.03 0.00 0.00 76 1012.9
20260905211226 30 143 4.8 9.7 0.00 0.00 0.00 74 1012.6
20260905210727 30 134 3.2 6.4 0.00 0.00 0.00 74 1012.4
20260905210227 31 139 4.8 12.9 0.00 0.00 0.00 70 1012.3
20260905205728 32 135 4.8 9.7 0.00 0.00 0.00 64 1012.3
20260905205226 32 170 3.2 4.8 0.00 0.00 0.00 64 1012.1
20260905204726 32 152 3.2 4.8 0.00 0.00 0.00 64 1011.9
20260905204227 33 168 4.8 6.4 0.00 0.00 0.00 61 1011.8
20260905203726 33 148 3.2 6.4 0.00 0.00 0.00 58 1011.8
20260905203228 33 153 3.2 6.4 0.00 0.00 0.00 58 1012.0
20260905202726 34 164 3.2 4.8 0.00 0.00 0.00 57 1012.0
20260905202226 34 172 4.8 6.4 0.00 0.00 0.00 57 1012.1
20260905201726 34 151 3.2 6.4 0.00 0.00 0.00 56 1012.1
20260905201226 35 170 3.2 4.8 0.00 0.00 0.00 55 1012.3
20260905200726 34 152 1.6 3.2 0.00 0.00 0.00 57 1012.3
20260905200226 34 172 3.2 4.8 0.00 0.00 0.00 56 1012.2
20260905195726 35 164 1.6 3.2 0.00 0.00 0.00 57 1012.3
20260905195226 35 138 3.2 4.8 0.00 0.00 0.00 54 1012.4
20260905194726 35 177 3.2 6.4 0.00 0.00 0.00 56 1012.5
20260905194226 34 125 1.6 3.2 0.00 0.00 0.00 57 1012.4
20260905193726 34 144 1.6 4.8 0.00 0.00 0.00 57 1012.4
20260905193226 35 169 3.2 4.8 0.00 0.00 0.00 57 1012.5
20260905192726 35 113 1.6 4.8 0.00 0.00 0.00 56 1012.5
20260905192226 35 8 1.6 4.8 0.00 0.00 0.00 56 1012.6
20260905191726 35 158 1.6 3.2 0.00 0.00 0.00 58 1012.6
20260905191226 35 189 0.0 3.2 0.00 0.00 0.00 57 1012.6
20260905190726 35 163 3.2 3.2 0.00 0.00 0.00 56 1012.7
20260905190227 35 187 4.8 6.4 0.00 0.00 0.00 55 1012.8
20260905185726 35 161 1.6 3.2 0.00 0.00 0.00 55 1013.0
20260905185226 35 185 3.2 6.4 0.00 0.00 0.00 54 1013.2
20260905184726 35 228 1.6 3.2 0.00 0.00 0.00 57 1013.3
20260905184226 35 188 3.2 6.4 0.00 0.00 0.00 56 1013.4
20260905183726 35 183 1.6 3.2 0.00 0.00 0.00 58 1013.5
20260905183228 35 197 3.2 3.2 0.00 0.00 0.00 60 1013.5
20260905182726 35 166 3.2 6.4 0.00 0.00 0.00 57 1013.6
20260905182226 35 315 1.6 4.8 0.00 0.00 0.00 58 1013.7
20260905181726 35 133 1.6 3.2 0.00 0.00 0.00 57 1013.8
20260905181226 34 139 1.6 3.2 0.00 0.00 0.00 59 1013.9
20260905180726 34 205 1.6 3.2 0.00 0.00 0.00 60 1013.9
20260905180226 35 177 1.6 3.2 0.00 0.00 0.00 60 1013.9
20260905175726 35 180 1.6 3.2 0.00 0.00 0.00 59 1013.9
20260905175226 35 169 3.2 6.4 0.00 0.00 0.00 57 1014.0
20260905174726 34 159 3.2 6.4 0.00 0.00 0.00 59 1014.1
20260905174228 34 147 3.2 6.4 0.00 0.00 0.00 60 1014.2
20260905173726 35 189 3.2 4.8 0.00 0.00 0.00 60 1014.2
20260905173226 35 183 1.6 4.8 0.00 0.00 0.00 59 1014.4
20260905172727 35 185 1.6 3.2 0.00 0.00 0.00 59 1014.4
20260905172226 35 146 1.6 3.2 0.00 0.00 0.00 58 1014.4
20260905171726 35 141 1.6 1.6 0.00 0.00 0.00 57 1014.4
20260905171227 35 254 0.0 3.2 0.00 0.00 0.00 58 1014.4
20260905170726 34 164 1.6 4.8 0.00 0.00 0.00 59 1014.5
20260905170227 34 150 1.6 3.2 0.00 0.00 0.00 61 1014.6
20260905165726 34 123 1.6 3.2 0.00 0.00 0.00 59 1014.7
20260905165226 34 78 1.6 3.2 0.00 0.00 0.00 59 1014.7
20260905164726 34 162 3.2 6.4 0.00 0.00 0.00 59 1014.8
20260905164227 34 147 1.6 4.8 0.00 0.00 0.00 58 1014.8
20260905163726 33 149 1.6 4.8 0.00 0.00 0.00 60 1014.8
20260905163226 33 159 1.6 4.8 0.00 0.00 0.00 61 1014.9
20260905162726 33 109 1.6 4.8 0.00 0.00 0.00 59 1015.0
20260905162226 33 126 1.6 4.8 0.00 0.00 0.00 62 1015.0
20260905161726 33 148 3.2 6.4 0.00 0.00 0.00 63 1015.1
20260905161226 33 156 3.2 4.8 0.00 0.00 0.00 61 1015.2
20260905160726 33 141 3.2 4.8 0.00 0.00 0.00 63 1015.2
20260905160226 32 131 1.6 4.8 0.00 0.00 0.00 62 1015.1
20260905155726 32 151 3.2 4.8 0.00 0.00 0.00 61 1015.1
20260905155227 32 157 3.2 6.4 0.00 0.00 0.00 65 1015.2
20260905154728 32 141 3.2 6.4 0.00 0.00 0.00 63 1015.2
20260905154226 32 148 3.2 4.8 0.00 0.00 0.00 68 1015.2
20260905153726 32 137 1.6 4.8 0.00 0.00 0.00 67 1015.1
20260905153227 31 133 3.2 4.8 0.00 0.00 0.00 69 1015.1
20260905152726 31 129 3.2 6.4 0.00 0.00 0.00 67 1015.0
20260905152226 31 161 6.4 6.4 0.00 0.00 0.00 69 1014.9
20260905151726 31 134 3.2 6.4 0.00 0.00 0.00 71 1015.0
20260905151226 31 137 3.2 4.8 0.00 0.00 0.00 70 1014.9
20260905150726 31 136 3.2 4.8 0.00 0.00 0.00 71 1015.0
20260905150226 31 135 3.2 8.0 0.00 0.00 0.00 72 1014.9
20260905145726 30 146 4.8 4.8 0.00 0.00 0.00 76 1014.9
20260905145226 30 153 3.2 6.4 0.00 0.00 0.00 78 1014.9
20260905144726 29 132 3.2 4.8 0.00 0.00 0.00 80 1014.9
20260905144227 29 144 4.8 6.4 0.00 0.00 0.00 82 1014.9
20260905143731 28 154 4.8 6.4 0.00 0.00 0.00 82 1014.9
20260905143226 28 139 4.8 6.4 0.00 0.00 0.00 83 1015.0
20260905142726 28 135 4.8 6.4 0.00 0.00 0.00 84 1015.0
20260905142226 28 136 4.8 6.4 0.00 0.00 0.00 84 1014.9
20260905141726 28 140 4.8 6.4 0.00 0.00 0.00 83 1014.9
20260905141226 28 148 4.8 6.4 0.00 0.00 0.00 83 1014.9
20260905140728 28 134 4.8 6.4 0.00 0.00 0.00 82 1014.9
20260905140226 28 139 4.8 6.4 0.00 0.00 0.00 83 1014.8
20260905135727 28 138 6.4 8.0 0.00 0.00 0.00 85 1014.8
20260905135227 27 128 4.8 6.4 0.00 0.00 0.00 85 1014.9
20260905134726 27 126 3.2 4.8 0.00 0.00 0.00 90 1014.9
20260905134226 26 131 4.8 6.4 0.00 0.00 0.00 91 1014.8
20260905133727 26 128 3.2 6.4 0.00 0.00 0.00 92 1014.8
20260905133226 26 138 6.4 8.0 0.00 0.00 0.00 93 1014.9
20260905132726 26 143 8.0 9.7 0.00 0.00 0.00 95 1014.9
20260905132226 26 136 8.0 9.7 0.00 0.00 0.00 96 1014.8
20260905131726 25 139 9.7 9.7 0.00 0.00 0.00 97 1014.7
20260905131226 25 139 8.0 11.3 0.00 0.00 0.00 97 1014.7
20260905130726 25 138 9.7 11.3 0.00 0.00 0.00 97 1014.9
20260905130226 25 137 6.4 11.3 0.00 0.00 0.00 97 1014.9
20260905125726 24 138 9.7 11.3 0.00 0.00 0.00 97 1014.9
20260905125226 24 137 8.0 11.3 0.00 0.00 0.00 97 1015.0
20260905124726 24 136 6.4 11.3 0.00 0.00 0.00 97 1015.0
20260905124226 24 139 9.7 11.3 0.00 0.00 0.00 97 1014.9
20260905123726 23 136 6.4 9.7 0.00 0.00 0.00 97 1014.8
20260905123226 23 136 8.0 8.0 0.00 0.00 0.00 97 1014.8
20260905122726 23 136 8.0 9.7 0.00 0.00 0.00 97 1014.9
20260905122226 23 143 8.0 9.7 0.00 0.00 0.00 97 1014.8
20260905121727 23 130 6.4 9.7 0.00 0.00 0.00 97 1014.8
20260905121230 23 133 6.4 9.7 0.00 0.00 0.00 97 1014.7
20260905120726 23 133 6.4 9.7 0.00 0.00 0.00 97 1014.6
20260905120226 23 141 9.7 9.7 0.00 0.00 0.00 97 1014.6
20260905115727 23 137 8.0 9.7 0.00 0.00 0.00 97 1014.6
20260905115227 23 144 6.4 9.7 0.00 0.00 0.00 97 1014.6
20260905114726 23 138 8.0 9.7 0.00 0.00 0.00 97 1014.5
20260905114226 23 142 9.7 11.3 0.00 0.00 0.00 97 1014.5
20260905113726 23 134 9.7 11.3 0.00 0.00 0.00 97 1014.4
20260905113226 23 134 9.7 11.3 0.00 0.00 0.00 97 1014.4
20260905112726 23 137 9.7 12.9 0.00 0.00 0.00 97 1014.4
20260905112227 23 141 8.0 11.3 0.00 0.00 0.00 97 1014.4
20260905111726 23 137 8.0 11.3 0.00 0.00 0.00 97 1014.4